Home   Weather   Preston   Past weeks

Flag for United Kingdom Past Weather in Preston, England, United Kingdom — Yesterday and Last 2 Weeks

54 °F

Passing clouds.

Feels Like: 52 °F
Forecast: 51 / 58 °F
Wind: 6 mph from Southeast

Location: Blackpool Airport

Current Time: Oct 28, 2016 at 8:53:18 PM

Latest Report: Oct 28, 2016 at 8:20 PM

Visibility: N/A

Pressure: 30.54 "Hg

Humidity: 94%

Dew Point: 52 °F

Location of PrestonLocation

Past Weather in Preston — Graph


Preston Temperature Yesterday

Maximum temperature yesterday: 57 °F (at 11:50 AM)
Minimum temperature yesterday: 54 °F (at 7:20 AM)
Average temperature yesterday: 56 °F

High & Low Weather Summary for the Past Weeks

High61 °F (Oct 16, 1:50 PM)100% (Oct 15, 6:20 AM)30.54 "Hg (Oct 15, 6:20 AM)
Low41 °F (Oct 22, 6:20 AM)51% (Oct 28, 10:50 AM)29.62 "Hg (Oct 15, 6:20 AM)
Average52 °F84%30.06 "Hg
* Reported Oct 13 7:20 PM — Oct 28 7:20 PM, Preston, Weather by CustomWeather, © 2016

Note: Actual official high and low records may vary slightly from our data, if they occured in-between our weather recording intervals... More about our weather records


Preston Weather History for the Previous 24 Hours

Scroll right to see more
Time TempWeatherWind HumidityBarometerVisibility
7:20 PM
Fri, Oct 28
54 °FPassing clouds.No wind94%30.54 "HgN/A
6:50 PM54 °FPassing clouds.No wind94%30.54 "HgN/A
6:20 PM54 °FPassing clouds.No wind94%30.54 "HgN/A
5:50 PM54 °FPartly cloudy.No wind94%30.51 "HgN/A
5:20 PM55 °FPartly sunny.No wind88%30.51 "HgN/A
4:50 PM55 °FPartly sunny.2 mph88%30.51 "HgN/A
4:20 PM55 °FPartly sunny.5 mph94%30.51 "HgN/A
3:50 PM54 °FBroken clouds.5 mph100%30.51 "HgN/A
3:20 PM54 °FFog.5 mph100%30.51 "Hg1 mi
2:50 PM54 °FDrizzle. Fog.3 mph100%30.51 "Hg1 mi
2:20 PM55 °FPartly sunny.3 mph94%30.51 "Hg1 mi
1:50 PM55 °FLow clouds.5 mph88%30.51 "HgN/A
1:20 PM55 °FPartly sunny.3 mph88%30.51 "HgN/A
12:50 PM55 °FPartly sunny.5 mph82%30.51 "HgN/A
12:20 PM55 °FScattered clouds.5 mph88%30.51 "HgN/A
11:50 AM55 °FPartly sunny.6 mph100%30.51 "HgN/A
11:20 AM57 °FPartly sunny.6 mph94%30.48 "HgN/A
10:50 AM55 °FScattered clouds.5 mph51%30.48 "HgN/A
10:20 AM55 °FScattered clouds.5 mph94%30.48 "HgN/A
9:50 AM55 °FScattered clouds.5 mph94%30.48 "HgN/A
9:20 AM54 °FScattered clouds.5 mph94%30.45 "HgN/A
8:50 AM54 °FScattered clouds.3 mph94%30.45 "HgN/A
8:20 AM54 °FPartly sunny.5 mph100%30.45 "Hg5 mi
7:50 AM54 °FDrizzle. Low clouds.5 mph100%30.42 "Hg2 mi
7:20 AM54 °FDrizzle. Low clouds.3 mph100%30.42 "Hg1 mi
6:50 AM54 °FLow clouds.7 mph100%30.39 "Hg2 mi
6:20 AM55 °FMostly cloudy.15 mph94%30.39 "Hg2 mi
8:50 PM
Thu, Oct 27
57 °FPassing clouds.22 mph88%30.30 "HgN/A
8:20 PM57 °FPassing clouds.24 mph88%30.30 "HgN/A
Weather by CustomWeather, © 2016

See weather overviewHow to use our weather pages